Tracking 28790 objects as of 19-Apr-2024
HD Live streaming from Space Station
objects crossing your sky now

COSMOS 917 DEB

Track COSMOS 917 DEB now!


NORAD ID: 27884
Int'l Code: 1977-047G
Perigee: 689.5 km
Apogee: 39,499.2 km
Inclination: 62.5 °
Period: 714.1 minutes
Semi major axis: 26465 km
RCS: 0.1521 m2 (medium)
Launch date: June 16, 1977
Source: Commonwealth of Independent States (former USSR) (CIS)
Launch site: PLESETSK MISSILE AND SPACE COMPLEX (PKMTR)

Note: This is SATELLITE DEBRIS
Your satellite tracking list
Your tracking list is empty




NASA's NSSDC Master Catalog

Two Line Element Set (TLE):
1 27884U 77047G   24108.78383677  .00001272  00000-0  39542-2 0  9995
2 27884  62.4961 342.1291 7332160  44.4972 354.9308  2.01644036157936
Source of the keplerian elements: AFSPC